RASCOM-QAF 1R

Last updated on Thu Sep 10 2026 00:02:56 GMT+0000 (Coordinated Universal Time)

1 36831U 10037B 26252.58618164 -.00000003 00000+0 00000+0 0 9990 2 36831 0.0063 183.8148 0005132 345.2329 33.5256 1.00270035 59156
UTC large
Height (km)
Speed (km/s)
/
Latitude / Longitude
Inclination (degrees)
Orbital Period (minutes)
Azimuth
Elevation
Range (km)
Doppler Factor

Next 0 passes for location: London (51.5072 / 0.1276)

No passes found over London.
RASCOM-QAF 1R